Flag for Canada Weather past 2 weeks in Morden, Manitoba, Canada

Now
68 °F

Mild.


Feels Like: 68 °F
Forecast: 58 / 81 °F
Wind: 3 mph from Southeast

Location: Morden CDA CS

Current Time: Jul 24, 2014 at 4:02:38 PM

Latest Report: Jul 24, 2014 at 3:00 PM


Visibility: N/A

Pressure: 29.89 "Hg

Humidity: 84%

Dew point: 63 °F

Location of MordenLocation

Historic Weather in Morden — Graph

°F

Morden temperature yesterday

Maximum temperature yesterday: 71 °F (at 4:00 PM)
Minimum temperature yesterday: 57 °F (at 5:00 AM)
Average temperature yesterday: 64 °F

Past Weeks' High & Low Weather Summary

 TemperatureHumidityPressure
High88 °F (Jul 20, 2:00 PM)99% (Jul 24, 2:00 AM)30.32 "Hg (Jul 24, 2:00 AM)
Low48 °F (Jul 14, 4:00 AM)34% (Jul 20, 2:00 PM)29.48 "Hg (Jul 20, 10:00 AM)
Average66 °F69%29.90 "Hg
* Reported Jul 9 2:00 PM — Jul 24 2:00 PM, Morden, Weather by CustomWeather, © 2014

Note: Actual official high and low records may vary slightly from our data, if they occured in-between our weather recording intervals... More about our weather records

Advertising

Morden weather history for previous 24 hours

 ConditionsComfort  
Time TempWeatherWind HumidityBarometerVisibility
2:00 PM
Jul 24
68 °FMild.7 mph79%29.89 "HgN/A
1:00 PM67 °FMild.7 mph77%29.90 "HgN/A
12:00 PM67 °FMild.14 mph78%29.86 "HgN/A
11:00 AM65 °FMild.6 mph82%30.01 "HgN/A
10:00 AM64 °FMild.5 mph76%30.04 "HgN/A
9:00 AM63 °FMild.5 mph77%30.04 "HgN/A
8:00 AM60 °FCool.6 mph87%30.01 "HgN/A
7:00 AM56 °FCool.2 mph89%30.04 "HgN/A
6:00 AM56 °FCool.3 mph89%30.04 "HgN/A
5:00 AM56 °FCool.2 mph90%30.06 "HgN/A
4:00 AM56 °FCool.1 mph91%30.10 "HgN/A
3:00 AM54 °FCool.3 mph92%30.12 "HgN/A
2:00 AM51 °FCool.No wind99%30.13 "HgN/A
1:00 AM54 °FCool.No wind94%30.13 "HgN/A
12:00 AM55 °FCool.1 mph92%30.15 "HgN/A
11:00 PM
Jul 23
58 °FCool.2 mph87%30.16 "HgN/A
10:00 PM59 °FCool.1 mph79%30.17 "HgN/A
9:00 PM64 °FMild.3 mph74%30.17 "HgN/A
8:00 PM69 °FMild.5 mph64%30.18 "HgN/A
7:00 PM71 °FMild.3 mph58%30.19 "HgN/A
6:00 PM71 °FMild.2 mph52%30.21 "HgN/A
5:00 PM71 °FMild.2 mph51%30.23 "HgN/A
4:00 PM71 °FMild.3 mph51%30.25 "HgN/A
Weather by CustomWeather, © 2014

See weather overviewHow to use our weather pages